CW0133 Weather Reports


Display with metric or nautical units.
time (UTC)temp
F
wind
direction
speed
MPH
gust
MPH
rain 1hr
in
rain 24hr
in
rain mn
in
humidity
%
barometer
mb
20260506062503 76 164 5.0 16.0 0.00 0.00 0.00 88 1009.3
20260506062003 76 170 5.0 11.0 0.00 0.00 0.00 88 1009.3
20260506061503 76 162 6.0 11.0 0.00 0.00 0.00 88 1009.2
20260506061003 76 163 6.0 10.0 0.00 0.00 0.00 88 1009.2
20260506060504 76 162 6.0 11.0 0.00 0.00 0.00 88 1009.2
20260506051003 77 166 7.0 20.0 0.00 0.00 0.00 87 1009.4
20260506050503 77 167 7.0 20.0 0.00 0.00 0.00 87 1009.4
20260506045003 77 164 6.0 14.0 0.00 0.00 0.00 86 1009.4
20260506044503 77 164 6.0 14.0 0.00 0.00 0.00 86 1009.5
20260506044003 77 162 6.0 14.0 0.00 0.00 0.00 86 1009.5
20260506043503 77 149 5.0 11.0 0.00 0.00 0.00 87 1009.5
20260506043003 77 150 5.0 11.0 0.00 0.00 0.00 87 1009.6
20260506042503 77 161 4.0 7.0 0.00 0.00 0.00 87 1009.4
20260506042024 77 155 5.0 10.0 0.00 0.00 0.00 87 1009.4
20260506041503 77 157 5.0 11.0 0.00 0.00 0.00 87 1009.3
20260506041003 77 153 5.0 11.0 0.00 0.00 0.00 87 1009.3
20260506040503 77 148 5.0 10.0 0.00 0.00 0.00 86 1009.3
20260506040003 78 148 5.0 10.0 0.00 0.00 0.00 86 1009.1
20260506035503 78 136 6.0 11.0 0.00 0.00 0.00 86 1008.9
20260506035024 78 144 6.0 13.0 0.00 0.00 0.00 86 1008.9
20260506034503 78 161 5.0 13.0 0.00 0.00 0.00 86 1008.9
20260506034004 78 141 6.0 11.0 0.00 0.00 0.00 86 1008.8
20260506033652 78 138 6.0 10.0 0.00 0.00 0.00 86 1008.8
20260505153003 72 194 7.0 14.0 0.00 0.00 0.00 89 1010.1
20260505152524 72 193 7.0 17.0 0.00 0.00 0.00 89 1010.0
20260505152024 72 196 7.0 17.0 0.00 0.00 0.00 90 1010.2
20260505151524 72 187 6.0 14.0 0.00 0.00 0.00 90 1010.0
20260505151003 72 174 5.0 14.0 0.00 0.00 0.00 90 1009.9
20260505150505 72 179 6.0 14.0 0.00 0.00 0.00 90 1009.9
20260505140503 72 190 7.0 16.0 0.00 0.00 0.00 90 1009.7
20260505125025 71 181 8.0 23.0 0.00 0.00 0.00 90 1008.9
20260505124504 71 180 8.0 17.0 0.00 0.00 0.00 90 1008.9
20260505124004 71 172 7.0 17.0 0.00 0.00 0.00 90 1008.8
20260505123504 71 172 8.0 17.0 0.00 0.00 0.00 90 1008.8
20260505123004 71 173 8.0 18.0 0.00 0.00 0.00 90 1008.7
20260505122504 71 173 8.0 18.0 0.00 0.00 0.00 90 1008.7
20260505122004 71 170 7.0 18.0 0.00 0.00 0.00 90 1008.6
20260505121504 71 178 8.0 20.0 0.00 0.00 0.00 90 1008.6
20260505121004 71 182 8.0 20.0 0.00 0.00 0.00 90 1008.6
20260505120504 71 179 7.0 14.0 0.00 0.00 0.00 90 1008.6
20260505120004 71 179 8.0 19.0 0.00 0.00 0.00 90 1008.5
20260505115504 71 180 8.0 22.0 0.00 0.00 0.00 90 1008.5
20260505115004 71 177 7.0 22.0 0.00 0.00 0.00 90 1008.5
20260505114504 71 175 7.0 14.0 0.00 0.00 0.00 90 1008.4
20260505114004 71 175 7.0 16.0 0.00 0.00 0.00 90 1008.2
20260505113525 71 175 8.0 18.0 0.00 0.00 0.00 90 1008.2
20260505113004 71 177 8.0 18.0 0.00 0.00 0.00 89 1008.4
20260505112503 71 176 7.0 17.0 0.00 0.00 0.00 89 1008.5
20260505112004 71 175 7.0 17.0 0.00 0.00 0.00 89 1008.6
20260505111503 71 177 8.0 19.0 0.00 0.00 0.00 89 1008.5
20260505111004 71 180 8.0 19.0 0.00 0.00 0.00 89 1008.4
20260505110503 71 180 7.0 19.0 0.00 0.00 0.00 89 1008.6
20260505102024 71 181 11.0 22.0 0.00 0.00 0.00 89 1008.6
20260505101503 71 178 10.0 22.0 0.00 0.00 0.00 89 1008.6
20260505101004 71 182 10.0 22.0 0.00 0.00 0.00 88 1008.7
20260505100504 71 185 11.0 22.0 0.00 0.00 0.00 88 1008.9
20260505100004 71 181 11.0 22.0 0.00 0.00 0.00 88 1009.0
20260505095504 71 180 11.0 25.0 0.00 0.00 0.00 88 1008.6
20260505095004 71 180 12.0 25.0 0.00 0.00 0.00 88 1008.5
20260505094504 71 179 12.0 25.0 0.00 0.00 0.00 88 1008.5
20260505094003 71 179 11.0 25.0 0.00 0.00 0.00 88 1008.7
20260505093504 71 178 11.0 28.0 0.00 0.00 0.00 88 1008.6
20260505093004 71 178 10.0 28.0 0.00 0.00 0.00 88 1008.7
20260505092503 71 183 10.0 26.0 0.00 0.00 0.00 88 1008.9
20260505092004 71 184 10.0 26.0 0.00 0.00 0.00 88 1008.7
20260505091503 71 180 10.0 23.0 0.00 0.00 0.00 88 1008.6
20260505091004 71 179 8.0 20.0 0.00 0.00 0.00 87 1008.7
20260505090525 71 175 10.0 25.0 0.00 0.00 0.00 87 1008.7
20260505090004 71 178 11.0 25.0 0.00 0.00 0.00 87 1008.8
20260505085503 71 179 10.0 17.0 0.00 0.00 0.00 87 1008.8
20260505085004 71 179 10.0 19.0 0.00 0.00 0.00 87 1009.1
20260505084503 71 177 10.0 19.0 0.00 0.00 0.00 87 1008.9
20260505084004 71 177 10.0 19.0 0.00 0.00 0.00 87 1008.8
20260505083503 71 179 10.0 19.0 0.00 0.00 0.00 87 1008.8
20260505083003 71 181 10.0 19.0 0.00 0.00 0.00 87 1009.0
20260505082503 71 182 11.0 24.0 0.00 0.00 0.00 87 1009.2
20260505082025 71 179 11.0 24.0 0.00 0.00 0.00 87 1009.3
20260505081504 71 177 10.0 18.0 0.00 0.00 0.00 87 1009.3
20260505081003 71 177 10.0 23.0 0.00 0.00 0.00 87 1009.3
20260505080504 71 179 10.0 23.0 0.00 0.00 0.00 87 1009.3
20260505080004 71 181 8.0 20.0 0.00 0.00 0.00 87 1009.4
20260505075503 71 183 10.0 24.0 0.00 0.00 0.00 87 1009.3
20260505075003 71 181 10.0 24.0 0.00 0.00 0.00 87 1009.4
20260505074503 71 174 10.0 22.0 0.00 0.00 0.00 87 1009.5
20260505074004 71 175 10.0 22.0 0.00 0.00 0.00 87 1009.5
20260505073503 71 180 10.0 23.0 0.00 0.00 0.00 87 1009.6
20260505073003 71 180 10.0 23.0 0.00 0.00 0.00 87 1009.7
20260505072503 71 175 10.0 19.0 0.00 0.00 0.00 87 1009.7
20260505072003 71 170 11.0 20.0 0.00 0.00 0.00 86 1009.8
20260505071504 71 172 11.0 23.0 0.00 0.00 0.00 86 1009.8
20260505071004 71 175 10.0 23.0 0.00 0.00 0.00 86 1009.9
20260505070503 71 178 11.0 19.0 0.00 0.00 0.00 86 1010.0
20260505070004 71 179 11.0 22.0 0.00 0.00 0.00 86 1010.0